Home > Weather > Jacksonville > Past weeks

Flag for USA Weather for the Past 2 Weeks in Jacksonville, North Carolina, USA

Now
60 °F

Clear.


Feels Like: 60 °F
Forecast: 61 / 74 °F
Wind: 7 mph from North

Location: Jacksonville - New River

Current Time: Apr 30, 2016 at 3:38:15 AM

Latest Report: Apr 30, 2016 at 2:56 AM


Visibility: 10 mi

Pressure: 30.01 "Hg

Humidity: 93%

Dew Point: 58 °F

Location of JacksonvilleLocation

Historic Weather in Jacksonville — Graph

°F

Jacksonville Temperature Yesterday

Maximum temperature yesterday: 76 °F (at 4:56 PM)
Minimum temperature yesterday: 63 °F (at 11:56 PM)
Average temperature yesterday: 68 °F

High & Low Weather Summary for the Past Weeks

 TemperatureHumidityPressure
High88 °F (Apr 19, 1:56 PM)97% (Apr 25, 4:56 AM)30.37 "Hg (Apr 25, 4:56 AM)
Low39 °F (Apr 18, 5:56 AM)17% (Apr 17, 3:56 PM)29.78 "Hg (Apr 23, 4:56 PM)
Average65 °F63%30.09 "Hg
* Reported Apr 15 1:56 AM — Apr 30 1:56 AM, Jacksonville, Weather by CustomWeather, © 2016

Note: Actual official high and low records may vary slightly from our data, if they occured in-between our weather recording intervals... More about our weather records

Advertising

Jacksonville Weather History for the Previous 24 Hours

Scroll right to see more
 ConditionsComfort  
Time TempWeatherWind HumidityBarometerVisibility
1:56 AM
Sat, Apr 30
59 °FClear.No wind93%30.01 "Hg10 mi
12:56 AM60 °FClear.5 mph90%30.02 "Hg10 mi
11:56 PM
Fri, Apr 29
63 °FClear.6 mph84%30.00 "Hg10 mi
10:56 PM65 °FClear.9 mph78%30.01 "Hg10 mi
9:56 PM65 °FClear.8 mph78%30.01 "Hg10 mi
8:56 PM67 °FClear.8 mph73%29.98 "Hg10 mi
7:56 PM68 °FSunny.8 mph70%29.98 "Hg10 mi
6:56 PM73 °FPassing clouds.7 mph59%29.96 "Hg10 mi
5:56 PM75 °FPassing clouds.8 mph54%29.96 "Hg10 mi
4:56 PM76 °FScattered clouds.10 mph54%29.96 "Hg10 mi
3:56 PM74 °FPartly sunny.8 mph60%29.97 "Hg10 mi
2:56 PM72 °FPartly sunny.8 mph66%29.97 "Hg10 mi
1:56 PM70 °FOvercast.6 mph68%29.98 "Hg10 mi
12:56 PM69 °FMostly cloudy.9 mph73%29.98 "Hg10 mi
11:56 AM67 °FOvercast.9 mph79%30.01 "Hg10 mi
10:56 AM67 °FLow clouds.12 mph81%30.00 "Hg10 mi
9:56 AM68 °FOvercast.13 mph82%29.97 "Hg10 mi
8:56 AM68 °FLow clouds.10 mph87%29.95 "Hg10 mi
7:56 AM67 °FLow clouds.9 mph90%29.93 "Hg7 mi
6:56 AM66 °FPassing clouds.7 mph90%29.91 "Hg7 mi
5:56 AM66 °FClear.8 mph90%29.88 "Hg10 mi
4:56 AM65 °FClear.3 mph91%29.87 "Hg10 mi
3:56 AM67 °FPassing clouds.No wind87%29.89 "Hg10 mi
Weather by CustomWeather, © 2016

See weather overviewHow to use our weather pages